Time,TemperatureF,DewpointF,PressureIn,WindDirection,WindDirectionDegrees,WindSpeedMPH,WindSpeedGustMPH,Humidity,HourlyPrecipIn,Conditions,Clouds,dailyrainin,SoftwareType,DateUTC
2013-06-12 07:20:00,66.7,56.3,28.73,SW,232,0.0,0.0,69,0.00,,FEW048,0.00,VWS V14.01,2013-06-12 11:20:00,
2013-06-12 07:21:00,66.9,56.4,28.73,SW,232,0.0,0.0,69,0.00,,FEW048,0.00,VWS V14.01,2013-06-12 11:21:00,
2013-06-12 07:26:00,67.1,55.8,28.73,SW,232,0.0,0.0,67,0.00,,FEW048,0.00,VWS V14.01,2013-06-12 11:26:00,
2013-06-12 07:31:00,67.5,55.3,28.73,SW,233,0.0,0.0,65,0.00,,FEW048,0.00,VWS V14.01,2013-06-12 11:31:00,
2013-06-12 07:36:00,68.0,54.5,28.73,SSE,150,2.7,2.7,62,0.00,,CLR,0.00,VWS V14.01,2013-06-12 11:36:00,
2013-06-12 07:42:00,68.5,53.2,28.73,East,95,0.0,0.0,58,0.00,,CLR,0.00,VWS V14.01,2013-06-12 11:42:00,
2013-06-12 07:47:00,69.3,53.9,28.73,East,91,0.0,0.0,58,0.00,,CLR,0.00,VWS V14.01,2013-06-12 11:47:00,
2013-06-12 07:52:00,69.6,53.7,28.73,East,86,0.0,0.0,57,0.00,,CLR,0.00,VWS V14.01,2013-06-12 11:52:00,
2013-06-12 07:57:00,70.0,52.6,28.73,East,86,0.0,0.0,54,0.00,,CLR,0.00,VWS V14.01,2013-06-12 11:57:00,
2013-06-12 08:06:00,71.6,49.8,28.73,NE,34,0.0,0.0,46,0.00,,CLR,0.00,VWS V14.01,2013-06-12 12:06:00,
2013-06-12 08:12:00,72.5,50.6,28.73,NE,34,0.0,0.0,46,0.00,,CLR,0.00,VWS V14.01,2013-06-12 12:12:00,
2013-06-12 08:17:00,73.6,49.1,28.73,East,90,2.7,2.7,42,0.00,,CLR,0.00,VWS V14.01,2013-06-12 12:17:00,
2013-06-12 08:22:00,74.5,50.5,28.76,East,90,0.0,0.0,43,0.00,,CLR,0.00,VWS V14.01,2013-06-12 12:22:00,
2013-06-12 08:27:00,75.6,48.9,28.76,WNW,298,2.7,2.7,39,0.00,,CLR,0.00,VWS V14.01,2013-06-12 12:27:00,
2013-06-12 08:32:00,76.3,48.8,28.76,ESE,123,3.6,3.6,38,0.00,,CLR,0.00,VWS V14.01,2013-06-12 12:32:00,
2013-06-12 08:37:00,77.2,48.2,28.73,SE,135,0.0,0.0,36,0.00,,CLR,0.00,VWS V14.01,2013-06-12 12:37:00,
2013-06-12 08:42:00,77.5,48.5,28.73,SSW,203,0.0,0.0,36,0.00,,CLR,0.00,VWS V14.01,2013-06-12 12:42:00,
2013-06-12 08:47:00,78.3,46.8,28.73,WNW,297,3.1,3.6,33,0.00,,CLR,0.00,VWS V14.01,2013-06-12 12:47:00,
2013-06-12 08:52:00,78.4,48.5,28.73,WSW,253,3.1,3.1,35,0.00,,CLR,0.00,VWS V14.01,2013-06-12 12:52:00,
2013-06-12 08:57:00,78.6,47.1,28.73,WNW,297,0.0,3.6,33,0.00,,CLR,0.00,VWS V14.01,2013-06-12 12:57:00,
2013-06-12 09:02:00,79.2,46.8,28.73,SW,214,2.7,2.7,32,0.00,,FEW027,0.00,VWS V14.01,2013-06-12 13:02:00,
2013-06-12 09:07:00,79.3,48.6,28.76,WSW,247,0.0,3.6,34,0.00,,FEW027,0.00,VWS V14.01,2013-06-12 13:07:00,
2013-06-12 09:13:00,79.5,47.9,28.76,West,275,2.7,2.7,33,0.00,,FEW027,0.00,VWS V14.01,2013-06-12 13:13:00,
2013-06-12 09:18:00,79.9,49.0,28.76,WSW,247,0.0,0.0,34,0.00,,FEW027,0.00,VWS V14.01,2013-06-12 13:18:00,
2013-06-12 09:23:00,79.3,47.8,28.73,SW,220,0.0,3.1,33,0.00,,FEW027,0.00,VWS V14.01,2013-06-12 13:23:00,
2013-06-12 09:28:00,79.0,49.0,28.73,SSW,202,2.2,4.0,35,0.00,,FEW027,0.00,VWS V14.01,2013-06-12 13:28:00,
2013-06-12 09:33:00,78.6,48.7,28.73,SW,224,3.6,5.8,35,0.00,,FEW027,0.00,VWS V14.01,2013-06-12 13:33:00,
2013-06-12 09:38:00,78.6,47.9,28.73,WNW,300,2.2,3.6,34,0.00,,FEW027,0.00,VWS V14.01,2013-06-12 13:38:00,
2013-06-12 09:43:00,78.4,48.5,28.73,WSW,251,2.7,4.0,35,0.00,,FEW027,0.00,VWS V14.01,2013-06-12 13:43:00,
2013-06-12 09:48:00,78.8,48.9,28.73,South,183,0.0,0.0,35,0.00,,FEW027,0.00,VWS V14.01,2013-06-12 13:48:00,
2013-06-12 09:53:00,79.0,49.8,28.73,West,268,4.0,4.0,36,0.00,,FEW027,0.00,VWS V14.01,2013-06-12 13:53:00,
2013-06-12 09:59:00,79.0,51.2,28.73,WSW,248,2.2,2.2,38,0.00,,FEW027,0.00,VWS V14.01,2013-06-12 13:59:00,
2013-06-12 10:04:00,78.8,48.1,28.73,WNW,285,3.1,3.1,34,0.00,,CLR,0.00,VWS V14.01,2013-06-12 14:04:00,
2013-06-12 10:09:00,78.6,49.5,28.73,WNW,287,0.0,0.0,36,0.00,,CLR,0.00,VWS V14.01,2013-06-12 14:09:00,
2013-06-12 10:14:00,78.4,50.8,28.73,NW,306,0.0,0.0,38,0.00,,CLR,0.00,VWS V14.01,2013-06-12 14:14:00,
2013-06-12 10:19:00,78.3,52.0,28.73,SSW,208,0.0,0.0,40,0.00,,CLR,0.00,VWS V14.01,2013-06-12 14:19:00,
2013-06-12 10:24:00,77.9,49.6,28.73,South,178,0.0,0.0,37,0.00,,CLR,0.00,VWS V14.01,2013-06-12 14:24:00,
2013-06-12 10:29:00,77.7,49.4,28.73,NW,305,0.0,0.0,37,0.00,,CLR,0.00,VWS V14.01,2013-06-12 14:29:00,
2013-06-12 10:34:00,77.7,50.8,28.73,West,274,2.2,2.2,39,0.00,,CLR,0.00,VWS V14.01,2013-06-12 14:34:00,
2013-06-12 10:39:00,77.7,50.1,28.73,SSW,203,3.6,3.6,38,0.00,,CLR,0.00,VWS V14.01,2013-06-12 14:39:00,
2013-06-12 10:44:00,77.9,48.8,28.73,WNW,302,0.0,0.0,36,0.00,,CLR,0.00,VWS V14.01,2013-06-12 14:44:00,
2013-06-12 10:50:00,77.9,50.3,28.73,SSW,203,2.7,2.7,38,0.00,,CLR,0.00,VWS V14.01,2013-06-12 14:50:00,
2013-06-12 10:55:00,77.7,50.8,28.73,NNW,346,0.0,0.0,39,0.00,,CLR,0.00,VWS V14.01,2013-06-12 14:55:00,
2013-06-12 11:00:00,78.8,51.1,28.73,SSW,212,2.7,3.6,38,0.00,,CLR,0.00,VWS V14.01,2013-06-12 15:00:00,
2013-06-12 11:05:00,80.2,52.3,28.73,SSE,158,0.0,2.2,38,0.00,,SCT085,0.00,VWS V14.01,2013-06-12 15:05:00,
2013-06-12 11:10:00,81.7,52.9,28.73,South,180,2.7,3.6,37,0.00,,SCT085,0.00,VWS V14.01,2013-06-12 15:10:00,
2013-06-12 11:15:00,83.1,50.2,28.73,WSW,256,0.0,0.0,32,0.00,,SCT085,0.00,VWS V14.01,2013-06-12 15:15:00,
2013-06-12 11:20:00,83.8,51.7,28.73,South,174,2.7,3.1,33,0.00,,SCT085,0.00,VWS V14.01,2013-06-12 15:20:00,
2013-06-12 11:25:00,84.2,51.2,28.73,SW,230,5.4,5.4,32,0.00,,SCT085,0.00,VWS V14.01,2013-06-12 15:25:00,
2013-06-12 11:30:00,84.2,51.2,28.73,SSW,199,4.0,4.9,32,0.00,,SCT085,0.00,VWS V14.01,2013-06-12 15:30:00,
2013-06-12 11:35:00,83.5,51.4,28.73,West,275,3.6,5.4,33,0.00,,SCT085,0.00,VWS V14.01,2013-06-12 15:35:00,
2013-06-12 11:40:00,82.6,50.6,28.73,SSW,197,5.4,5.4,33,0.00,,SCT085,0.00,VWS V14.01,2013-06-12 15:40:00,
2013-06-12 11:45:00,82.6,51.4,28.73,SW,234,2.7,2.7,34,0.00,,SCT085,0.00,VWS V14.01,2013-06-12 15:45:00,
2013-06-12 11:50:00,83.5,53.0,28.73,SSW,193,6.7,6.7,35,0.00,,SCT085,0.00,VWS V14.01,2013-06-12 15:50:00,
2013-06-12 11:55:00,83.1,51.9,28.73,SSW,197,3.1,3.1,34,0.00,,SCT085,0.00,VWS V14.01,2013-06-12 15:55:00,
2013-06-12 12:00:00,83.3,52.8,28.73,West,268,3.1,3.1,35,0.00,,SCT085,0.00,VWS V14.01,2013-06-12 16:00:00,
2013-06-12 12:06:00,84.4,50.5,28.73,SSW,206,2.7,2.7,31,0.00,,FEW038,0.00,VWS V14.01,2013-06-12 16:06:00,
2013-06-12 12:11:00,84.9,51.8,28.73,South,182,2.7,3.1,32,0.00,,FEW038,0.00,VWS V14.01,2013-06-12 16:11:00,
2013-06-12 12:16:00,85.5,50.5,28.73,WSW,255,0.0,0.0,30,0.00,,FEW038,0.00,VWS V14.01,2013-06-12 16:16:00,
2013-06-12 12:21:00,86.5,51.5,28.73,North,3,2.7,2.7,30,0.00,,FEW038,0.00,VWS V14.01,2013-06-12 16:21:00,
2013-06-12 12:26:00,87.1,53.7,28.73,West,260,2.7,2.7,32,0.00,,FEW038,0.00,VWS V14.01,2013-06-12 16:26:00,
2013-06-12 12:31:00,87.6,52.4,28.73,West,270,0.0,2.7,30,0.00,,FEW038,0.00,VWS V14.01,2013-06-12 16:31:00,
2013-06-12 12:36:00,88.0,50.8,28.73,WNW,283,2.2,2.2,28,0.00,,FEW038,0.00,VWS V14.01,2013-06-12 16:36:00,
2013-06-12 12:41:00,88.0,51.8,28.73,WNW,290,2.7,3.6,29,0.00,,FEW038,0.00,VWS V14.01,2013-06-12 16:41:00,
2013-06-12 12:46:00,88.2,51.0,28.73,SW,219,2.7,3.6,28,0.00,,FEW038,0.00,VWS V14.01,2013-06-12 16:46:00,
2013-06-12 12:51:00,88.5,53.2,28.73,NNE,19,2.2,2.2,30,0.00,,FEW038,0.00,VWS V14.01,2013-06-12 16:51:00,
2013-06-12 12:56:00,88.5,51.3,28.73,South,171,3.6,4.0,28,0.00,,FEW038,0.00,VWS V14.01,2013-06-12 16:56:00,
2013-06-12 13:01:00,88.5,51.3,28.73,SW,227,2.7,2.7,28,0.00,,FEW038,0.00,VWS V14.01,2013-06-12 17:01:00,
2013-06-12 13:06:00,88.3,51.1,28.73,South,175,5.4,5.4,28,0.00,,FEW039,0.00,VWS V14.01,2013-06-12 17:06:00,
2013-06-12 13:11:00,88.7,51.4,28.70,WSW,237,2.7,2.7,28,0.00,,FEW039,0.00,VWS V14.01,2013-06-12 17:11:00,
2013-06-12 13:16:00,88.2,51.0,28.70,SSE,152,4.9,4.9,28,0.00,,FEW039,0.00,VWS V14.01,2013-06-12 17:16:00,
2013-06-12 13:22:00,87.8,51.6,28.70,WSW,252,2.7,3.6,29,0.00,,FEW039,0.00,VWS V14.01,2013-06-12 17:22:00,
2013-06-12 13:27:00,88.5,51.3,28.70,SSW,204,3.1,3.1,28,0.00,,FEW039,0.00,VWS V14.01,2013-06-12 17:27:00,
2013-06-12 13:32:00,88.2,51.0,28.70,SW,231,4.9,4.9,28,0.00,,FEW039,0.00,VWS V14.01,2013-06-12 17:32:00,
2013-06-12 13:37:00,88.0,51.8,28.70,West,269,3.1,3.1,29,0.00,,FEW039,0.00,VWS V14.01,2013-06-12 17:37:00,
2013-06-12 13:42:00,88.2,51.9,28.70,WSW,256,2.2,3.6,29,0.00,,FEW039,0.00,VWS V14.01,2013-06-12 17:42:00,
2013-06-12 13:47:00,88.3,51.1,28.70,SSW,199,2.7,2.7,28,0.00,,FEW039,0.00,VWS V14.01,2013-06-12 17:47:00,
2013-06-12 13:52:00,88.0,50.8,28.70,SW,218,2.2,2.2,28,0.00,,FEW039,0.00,VWS V14.01,2013-06-12 17:52:00,
2013-06-12 13:57:00,87.8,50.7,28.70,SW,219,3.1,3.1,28,0.00,,FEW039,0.00,VWS V14.01,2013-06-12 17:57:00,
2013-06-12 14:02:00,88.0,50.8,28.70,SW,219,2.7,2.7,28,0.00,,SCT040,0.00,VWS V14.01,2013-06-12 18:02:00,
2013-06-12 14:07:00,88.3,52.1,28.70,West,276,2.2,2.7,29,0.00,,SCT040,0.00,VWS V14.01,2013-06-12 18:07:00,
2013-06-12 14:12:00,89.1,51.8,28.70,WSW,247,4.0,4.0,28,0.00,,SCT040,0.00,VWS V14.01,2013-06-12 18:12:00,
2013-06-12 14:17:00,89.4,53.0,28.70,WSW,244,0.0,4.5,29,0.00,,SCT040,0.00,VWS V14.01,2013-06-12 18:17:00,
2013-06-12 14:23:00,89.8,52.4,28.70,West,267,0.0,0.0,28,0.00,,SCT040,0.00,VWS V14.01,2013-06-12 18:23:00,
2013-06-12 14:28:00,90.1,49.6,28.70,North,353,3.1,3.1,25,0.00,,SCT040,0.00,VWS V14.01,2013-06-12 18:28:00,
2013-06-12 14:33:00,90.0,51.5,28.70,West,277,0.0,0.0,27,0.00,,SCT040,0.00,VWS V14.01,2013-06-12 18:33:00,
2013-06-12 14:38:00,89.6,49.2,28.70,SSW,206,4.0,4.0,25,0.00,,SCT040,0.00,VWS V14.01,2013-06-12 18:38:00,
2013-06-12 14:43:00,88.7,51.4,28.70,SW,218,4.0,4.0,28,0.00,,SCT040,0.00,VWS V14.01,2013-06-12 18:43:00,
2013-06-12 14:48:00,88.0,50.8,28.70,SW,230,3.1,3.1,28,0.00,,SCT040,0.00,VWS V14.01,2013-06-12 18:48:00,
2013-06-12 14:53:00,87.8,50.7,28.70,SW,220,0.0,0.0,28,0.00,,SCT040,0.00,VWS V14.01,2013-06-12 18:53:00,
2013-06-12 14:58:00,88.9,49.6,28.70,WNW,294,2.7,3.1,26,0.00,,SCT040,0.00,VWS V14.01,2013-06-12 18:58:00,
2013-06-12 15:03:00,89.8,51.4,28.70,SSW,197,3.6,3.6,27,0.00,,SCT040,0.00,VWS V14.01,2013-06-12 19:03:00,
2013-06-12 15:08:00,90.0,50.5,28.70,WNW,283,2.2,4.0,26,0.00,,SCT040,0.00,VWS V14.01,2013-06-12 19:08:00,
2013-06-12 15:13:00,90.5,48.8,28.70,NE,56,3.6,3.6,24,0.00,,SCT040,0.00,VWS V14.01,2013-06-12 19:13:00,
2013-06-12 15:18:00,90.7,49.0,28.70,SSW,212,2.7,2.7,24,0.00,,SCT040,0.00,VWS V14.01,2013-06-12 19:18:00,
2013-06-12 15:24:00,90.3,47.5,28.70,SSW,213,3.6,3.6,23,0.00,,SCT040,0.00,VWS V14.01,2013-06-12 19:24:00,
2013-06-12 15:29:00,88.3,47.0,28.70,West,266,3.6,8.3,24,0.00,,SCT040,0.00,VWS V14.01,2013-06-12 19:29:00,
2013-06-12 15:34:00,88.5,50.3,28.70,SW,218,2.7,2.7,27,0.00,,SCT040,0.00,VWS V14.01,2013-06-12 19:34:00,
2013-06-12 15:39:00,88.9,48.5,28.70,West,266,2.7,2.7,25,0.00,,SCT040,0.00,VWS V14.01,2013-06-12 19:39:00,
2013-06-12 15:44:00,88.7,48.4,28.70,WSW,237,3.1,5.4,25,0.00,,SCT040,0.00,VWS V14.01,2013-06-12 19:44:00,
2013-06-12 15:49:00,89.1,47.6,28.70,South,176,2.2,2.2,24,0.00,,SCT040,0.00,VWS V14.01,2013-06-12 19:49:00,
2013-06-12 15:54:00,89.2,49.9,28.70,West,269,2.7,5.4,26,0.00,,SCT040,0.00,VWS V14.01,2013-06-12 19:54:00,
2013-06-12 15:59:00,88.5,48.2,28.70,West,274,2.7,6.3,25,0.00,,SCT040,0.00,VWS V14.01,2013-06-12 19:59:00,
2013-06-12 16:04:00,88.9,48.5,28.70,West,271,3.1,4.0,25,0.00,,SCT045,0.00,VWS V14.01,2013-06-12 20:04:00,
2013-06-12 16:09:00,88.5,48.2,28.70,West,269,2.7,2.7,25,0.00,,SCT045,0.00,VWS V14.01,2013-06-12 20:09:00,
2013-06-12 16:14:00,88.9,50.6,28.70,SW,217,5.8,5.8,27,0.00,,SCT045,0.00,VWS V14.01,2013-06-12 20:14:00,
2013-06-12 16:19:00,88.9,49.6,28.70,SW,235,2.7,3.1,26,0.00,,SCT045,0.00,VWS V14.01,2013-06-12 20:19:00,
2013-06-12 16:24:00,88.5,51.3,28.70,West,265,2.2,2.2,28,0.00,,SCT045,0.00,VWS V14.01,2013-06-12 20:24:00,
2013-06-12 16:30:00,88.5,50.3,28.70,WSW,246,2.2,4.0,27,0.00,,SCT045,0.00,VWS V14.01,2013-06-12 20:30:00,
2013-06-12 16:35:00,88.3,48.1,28.70,WNW,283,3.1,3.1,25,0.00,,SCT045,0.00,VWS V14.01,2013-06-12 20:35:00,
2013-06-12 16:40:00,88.2,47.9,28.70,West,268,0.0,0.0,25,0.00,,SCT045,0.00,VWS V14.01,2013-06-12 20:40:00,
2013-06-12 16:45:00,88.3,51.1,28.70,SW,234,0.0,0.0,28,0.00,,SCT045,0.00,VWS V14.01,2013-06-12 20:45:00,
2013-06-12 16:50:00,88.3,51.1,28.70,SW,215,4.0,5.4,28,0.00,,SCT045,0.00,VWS V14.01,2013-06-12 20:50:00,
2013-06-12 16:55:00,88.2,46.9,28.70,WSW,245,3.6,3.6,24,0.00,,SCT045,0.00,VWS V14.01,2013-06-12 20:55:00,
2013-06-12 17:00:00,88.2,46.9,28.70,WNW,297,2.7,2.7,24,0.00,,SCT045,0.00,VWS V14.01,2013-06-12 21:00:00,
2013-06-12 17:05:00,87.8,47.6,28.70,SSW,212,6.3,6.3,25,0.00,,FEW045,0.00,VWS V14.01,2013-06-12 21:05:00,
2013-06-12 17:10:00,87.6,47.5,28.70,West,269,2.7,2.7,25,0.00,,FEW045,0.00,VWS V14.01,2013-06-12 21:10:00,
2013-06-12 17:15:00,87.6,46.4,28.70,South,171,0.0,0.0,24,0.00,,FEW045,0.00,VWS V14.01,2013-06-12 21:15:00,
2013-06-12 17:20:00,87.6,48.5,28.70,WNW,284,0.0,2.2,26,0.00,,FEW045,0.00,VWS V14.01,2013-06-12 21:20:00,
2013-06-12 17:25:00,87.6,49.5,28.67,WSW,246,0.0,4.0,27,0.00,,FEW045,0.00,VWS V14.01,2013-06-12 21:25:00,
2013-06-12 17:31:00,87.6,49.5,28.67,SW,215,0.0,0.0,27,0.00,,FEW045,0.00,VWS V14.01,2013-06-12 21:31:00,
2013-06-12 17:36:00,87.8,49.7,28.67,WNW,286,0.0,2.2,27,0.00,,FEW045,0.00,VWS V14.01,2013-06-12 21:36:00,
2013-06-12 17:41:00,87.6,50.5,28.67,West,275,2.2,2.7,28,0.00,,FEW045,0.00,VWS V14.01,2013-06-12 21:41:00,
2013-06-12 17:46:00,87.3,50.2,28.67,SSW,193,3.6,3.6,28,0.00,,FEW045,0.00,VWS V14.01,2013-06-12 21:46:00,
2013-06-12 17:51:00,87.1,50.1,28.67,SE,145,0.0,3.1,28,0.00,,FEW045,0.00,VWS V14.01,2013-06-12 21:51:00,
2013-06-12 17:56:00,87.1,50.1,28.67,SSW,204,3.1,4.0,28,0.00,,FEW045,0.00,VWS V14.01,2013-06-12 21:56:00,
2013-06-12 18:01:00,86.9,49.9,28.67,SSW,199,0.0,2.7,28,0.00,,FEW045,0.00,VWS V14.01,2013-06-12 22:01:00,
2013-06-12 18:06:00,86.7,49.8,28.67,WSW,248,2.7,5.8,28,0.00,,FEW045,0.00,VWS V14.01,2013-06-12 22:06:00,
2013-06-12 18:11:00,86.7,49.8,28.67,SSW,200,4.0,4.0,28,0.00,,FEW045,0.00,VWS V14.01,2013-06-12 22:11:00,
2013-06-12 18:16:00,86.5,49.6,28.67,SSW,203,0.0,0.0,28,0.00,,FEW045,0.00,VWS V14.01,2013-06-12 22:16:00,
2013-06-12 18:21:00,86.4,49.4,28.67,West,275,2.2,3.1,28,0.00,,FEW045,0.00,VWS V14.01,2013-06-12 22:21:00,
2013-06-12 18:26:00,86.4,49.4,28.67,South,173,0.0,0.0,28,0.00,,FEW045,0.00,VWS V14.01,2013-06-12 22:26:00,
2013-06-12 18:31:00,86.2,49.3,28.67,West,277,0.0,0.0,28,0.00,,FEW045,0.00,VWS V14.01,2013-06-12 22:31:00,
2013-06-12 18:36:00,85.8,49.9,28.67,WSW,245,0.0,0.0,29,0.00,,FEW045,0.00,VWS V14.01,2013-06-12 22:36:00,
2013-06-12 18:41:00,85.8,49.9,28.67,WNW,283,2.2,3.1,29,0.00,,FEW045,0.00,VWS V14.01,2013-06-12 22:41:00,
2013-06-12 18:46:00,85.5,49.6,28.67,SW,232,2.2,3.6,29,0.00,,FEW045,0.00,VWS V14.01,2013-06-12 22:46:00,
2013-06-12 18:51:00,85.6,49.8,28.67,West,260,2.2,2.7,29,0.00,,FEW045,0.00,VWS V14.01,2013-06-12 22:51:00,
2013-06-12 18:56:00,85.6,49.8,28.67,WNW,285,2.7,2.7,29,0.00,,FEW045,0.00,VWS V14.01,2013-06-12 22:56:00,
2013-06-12 19:02:00,85.5,48.7,28.67,SW,215,3.1,3.6,28,0.00,,FEW045,0.00,VWS V14.01,2013-06-12 23:02:00,
2013-06-12 19:07:00,85.6,48.8,28.67,SW,223,2.7,3.6,28,0.00,,FEW045,0.00,VWS V14.01,2013-06-12 23:07:00,
2013-06-12 19:12:00,85.5,48.7,28.67,West,266,3.1,4.0,28,0.00,,FEW045,0.00,VWS V14.01,2013-06-12 23:12:00,
2013-06-12 19:17:00,85.6,48.8,28.67,SSW,205,2.2,3.6,28,0.00,,FEW045,0.00,VWS V14.01,2013-06-12 23:17:00,
2013-06-12 19:22:00,85.6,48.8,28.67,SSW,205,3.6,4.0,28,0.00,,FEW045,0.00,VWS V14.01,2013-06-12 23:22:00,
2013-06-12 19:27:00,85.6,48.8,28.67,SW,234,0.0,0.0,28,0.00,,FEW045,0.00,VWS V14.01,2013-06-12 23:27:00,
2013-06-12 19:32:00,85.6,48.8,28.67,SSW,202,0.0,0.0,28,0.00,,FEW045,0.00,VWS V14.01,2013-06-12 23:32:00,
2013-06-12 19:37:00,85.3,49.5,28.67,SSW,202,0.0,0.0,29,0.00,,FEW045,0.00,VWS V14.01,2013-06-12 23:37:00,
2013-06-12 19:42:00,84.7,49.0,28.67,SSW,202,0.0,0.0,29,0.00,,FEW045,0.00,VWS V14.01,2013-06-12 23:42:00,
2013-06-12 19:47:00,84.2,48.5,28.67,SSW,202,0.0,0.0,29,0.00,,FEW045,0.00,VWS V14.01,2013-06-12 23:47:00,
2013-06-12 19:52:00,83.7,49.0,28.67,SSW,202,0.0,0.0,30,0.00,,FEW045,0.00,VWS V14.01,2013-06-12 23:52:00,
2013-06-12 19:57:00,83.1,49.4,28.67,SSW,202,2.7,2.7,31,0.00,,FEW045,0.00,VWS V14.01,2013-06-12 23:57:00,
2013-06-12 20:03:00,82.8,49.9,28.67,SSW,202,0.0,2.2,32,0.00,,FEW050,0.00,VWS V14.01,2013-06-13 00:03:00,
2013-06-12 20:08:00,82.4,49.6,28.67,SSW,202,0.0,0.0,32,0.00,,FEW050,0.00,VWS V14.01,2013-06-13 00:08:00,
2013-06-12 20:13:00,82.2,50.3,28.67,SSW,202,0.0,0.0,33,0.00,,FEW050,0.00,VWS V14.01,2013-06-13 00:13:00,
2013-06-12 20:18:00,82.0,50.9,28.67,SSW,202,0.0,0.0,34,0.00,,FEW050,0.00,VWS V14.01,2013-06-13 00:18:00,
2013-06-12 20:23:00,81.7,51.4,28.67,SSW,202,0.0,0.0,35,0.00,,FEW050,0.00,VWS V14.01,2013-06-13 00:23:00,
2013-06-12 20:28:00,81.3,51.8,28.67,SSW,202,0.0,0.0,36,0.00,,FEW050,0.00,VWS V14.01,2013-06-13 00:28:00,
2013-06-12 20:33:00,81.1,50.9,28.67,SSW,202,0.0,0.0,35,0.00,,FEW050,0.00,VWS V14.01,2013-06-13 00:33:00,
2013-06-12 20:38:00,81.0,51.5,28.67,SSW,202,0.0,0.0,36,0.00,,FEW050,0.00,VWS V14.01,2013-06-13 00:38:00,
2013-06-12 20:43:00,80.6,51.2,28.67,SSW,202,0.0,0.0,36,0.00,,FEW050,0.00,VWS V14.01,2013-06-13 00:43:00,
2013-06-12 20:48:00,80.1,52.2,28.67,SSW,202,0.0,0.0,38,0.00,,FEW050,0.00,VWS V14.01,2013-06-13 00:48:00,
2013-06-12 20:53:00,79.7,52.6,28.67,SSW,202,0.0,0.0,39,0.00,,FEW050,0.00,VWS V14.01,2013-06-13 00:53:00,
2013-06-12 20:58:00,79.2,52.1,28.67,SSW,202,0.0,0.0,39,0.00,,FEW050,0.00,VWS V14.01,2013-06-13 00:58:00,
2013-06-12 21:04:00,78.8,52.5,28.67,WSW,237,0.0,2.7,40,0.00,,FEW050,0.00,VWS V14.01,2013-06-13 01:04:00,
2013-06-12 21:09:00,78.8,52.5,28.67,WSW,237,0.0,0.0,40,0.00,,FEW050,0.00,VWS V14.01,2013-06-13 01:09:00,
2013-06-12 21:14:00,78.6,52.3,28.67,WSW,237,0.0,0.0,40,0.00,,FEW050,0.00,VWS V14.01,2013-06-13 01:14:00,
2013-06-12 21:19:00,78.4,53.5,28.67,WSW,237,0.0,0.0,42,0.00,,FEW050,0.00,VWS V14.01,2013-06-13 01:19:00,
2013-06-12 21:24:00,78.3,54.0,28.67,WSW,237,0.0,0.0,43,0.00,,FEW050,0.00,VWS V14.01,2013-06-13 01:24:00,
2013-06-12 21:29:00,78.1,53.8,28.67,WSW,237,0.0,0.0,43,0.00,,FEW050,0.00,VWS V14.01,2013-06-13 01:29:00,
2013-06-12 21:34:00,77.7,53.5,28.67,WSW,237,0.0,0.0,43,0.00,,FEW050,0.00,VWS V14.01,2013-06-13 01:34:00,
2013-06-12 21:39:00,77.5,53.9,28.67,WSW,237,0.0,0.0,44,0.00,,FEW050,0.00,VWS V14.01,2013-06-13 01:39:00,
2013-06-12 21:44:00,77.4,53.8,28.67,WSW,237,0.0,0.0,44,0.00,,FEW050,0.00,VWS V14.01,2013-06-13 01:44:00,
2013-06-12 21:49:00,77.0,54.1,28.67,WSW,237,0.0,0.0,45,0.00,,FEW050,0.00,VWS V14.01,2013-06-13 01:49:00,
2013-06-12 21:55:00,76.6,54.9,28.67,WSW,237,0.0,0.0,47,0.00,,FEW050,0.00,VWS V14.01,2013-06-13 01:55:00,
2013-06-12 22:00:00,76.5,55.3,28.67,WSW,237,0.0,0.0,48,0.00,,FEW050,0.00,VWS V14.01,2013-06-13 02:00:00,
2013-06-12 22:05:00,76.1,55.6,28.67,WSW,237,0.0,0.0,49,0.00,,CLR,0.00,VWS V14.01,2013-06-13 02:05:00,
2013-06-12 22:10:00,75.9,54.8,28.67,WSW,237,0.0,0.0,48,0.00,,CLR,0.00,VWS V14.01,2013-06-13 02:10:00,
2013-06-12 22:15:00,75.7,55.2,28.67,WSW,237,0.0,0.0,49,0.00,,CLR,0.00,VWS V14.01,2013-06-13 02:15:00,
2013-06-12 22:20:00,75.6,55.6,28.67,WSW,237,0.0,0.0,50,0.00,,CLR,0.00,VWS V14.01,2013-06-13 02:20:00,
2013-06-12 22:25:00,75.6,55.6,28.67,WSW,237,0.0,0.0,50,0.00,,CLR,0.00,VWS V14.01,2013-06-13 02:25:00,
2013-06-12 22:30:00,75.6,55.6,28.67,WSW,237,0.0,0.0,50,0.00,,CLR,0.00,VWS V14.01,2013-06-13 02:30:00,
2013-06-12 22:35:00,75.4,56.0,28.67,WSW,237,0.0,0.0,51,0.00,,CLR,0.00,VWS V14.01,2013-06-13 02:35:00,
2013-06-12 22:41:00,75.2,56.4,28.67,WSW,237,0.0,0.0,52,0.00,,CLR,0.00,VWS V14.01,2013-06-13 02:41:00,
2013-06-12 22:46:00,74.8,56.0,28.67,WSW,237,0.0,0.0,52,0.00,,CLR,0.00,VWS V14.01,2013-06-13 02:46:00,
2013-06-12 22:51:00,74.5,56.8,28.67,WSW,237,0.0,0.0,54,0.00,,CLR,0.00,VWS V14.01,2013-06-13 02:51:00,
2013-06-12 22:56:00,74.5,57.3,28.67,WSW,237,0.0,0.0,55,0.00,,CLR,0.00,VWS V14.01,2013-06-13 02:56:00,
2013-06-12 23:01:00,74.3,57.1,28.67,WSW,237,0.0,0.0,55,0.00,,CLR,0.00,VWS V14.01,2013-06-13 03:01:00,